Regional Weather Roundup
Issued by NWS Kansas City/Pleasant Hill, MO

Home | Current Version | Previous Version | Text Only | Print | Product List | Glossary On
Versions: 1 2 3 4 5 6 7 8 9 10 11 12 13 14 15 16 17 18 19 20 21 22 23 24 25 26 27 28 29 30 31 32 33 34 35 36 37 38 39 40 41 42 43 44 45 46 47 48 49 50
000
ASUS43 KEAX 262210
RWREAX

WEATHER ROUNDUP FOR EASTERN KANSAS AND NORTHWEST MISSOURI
NATIONAL WEATHER SERVICE KANSAS CITY/PLEASANT HILL MO
500 PM CDT WED APR 26 2017

KSZ040-057-103>105-MOZ028-029-037-043-262300-
...KANSAS CITY METROPOLITAN AREA...

CITY           SKY/WX    TMP DP  RH WIND       PRES   REMARKS
K.C. INTL      CLOUDY    50  39  66 N15       29.58F
K.C. DOWNTOWN  CLOUDY    50  39  66 N8        29.59F
LEES SUMMIT    CLOUDY    47  43  86 NW10      29.59F
OLATHE - IXD   LGT RAIN  48  40  73 NW8       29.60F
OLATHE - OJC   CLOUDY    47  40  76 N9        29.60R
LAWRENCE       CLOUDY    50  39  66 NW16      29.61F

$$

MOZ001>008-011>017-020>025-030>033-038>040-044>046-053-054-262300-
...NORTHERN AND CENTRAL MISSOURI...

CITY           SKY/WX    TMP DP  RH WIND       PRES   REMARKS
ST. JOSEPH     CLOUDY    50  38  63 N14       29.62R
WHITEMAN AFB   RAIN      45  45 100 N10       29.53F FOG
CLINTON        LGT RAIN  46  46 100 NW9       29.56R
SEDALIA        LGT RAIN  47  47 100 NW15      29.55R
WARSAW         NOT AVBL
CHILLICOTHE      N/A     48  43  82 VRB7      29.59S
KIRKSVILLE     LGT RAIN  47  45  93 NW8       29.55F FOG

$$

MOZ041-047>049-056>058-063>065-088>090-097-262300-
...EASTERN AND SOUTHERN MISSOURI...

CITY           SKY/WX    TMP DP  RH WIND       PRES   REMARKS
ST. LOUIS INTL RAIN      64  59  83 SE8       29.47F
SPIRIT OF STL  TSTM      61  61 100 VRB6      29.45F FOG
COLUMBIA       CLOUDY    49  48  97 NW13      29.52R
JEFFERSON CITY LGT RAIN  51  48  89 NW7       29.52S FOG
ROLLA          LGT RAIN  50  50 100 W12       29.48S VSB 1/4
OSAGE BEACH    LGT RAIN  48  47  96 VRB7      29.49F FOG
SPRINGFIELD    LGT RAIN  48  47  96 N8        29.52S FOG
BRANSON        LGT RAIN  48  48 100 W7        29.53S VSB 1
JOPLIN         CLOUDY    47  44  90 N12       29.60S
WEST PLAINS    LGT RAIN  57  56  96 CALM      29.48F

$$

IAZ060-094-KSZ022-034>040-054-083-096-NEZ052-066-093-262300-
...KANSAS...SOUTHEAST NEBRASKA AND IOWA...

CITY           SKY/WX    TMP DP  RH WIND       PRES   REMARKS
TOPEKA         CLOUDY    51  39  63 NW13G20   29.63S
MANHATTAN      CLOUDY    53  36  52 VRB7G20   29.65S
EMPORIA        CLOUDY    51  38  60 NW14      29.63F
CHANUTE        CLOUDY    47  41  80 NW8       29.62F
WICHITA        PTSUNNY   54  37  52 NW18G26   29.66F
OMAHA          CLOUDY    43  33  68 NW18      29.65F WCI  35
LINCOLN        CLOUDY    45  33  63 NW20      29.69F
FALLS CITY     CLOUDY    46  35  65 NW17G24   29.63F
LAMONI         CLOUDY    46  38  73 N15       29.58R
DES MOINES     CLOUDY    48  39  71 NW15      29.57F

$$




USA.gov is the U.S. government's official web portal to all federal, state and local government web resources and services.